Weather History for KMWH - May, 2012

Change the Weather History Date:

Tuesday, May 22, 2012

  Actual Average Record
Temperature  
Mean Temperature 57 °F 61 °F  
Max Temperature 65 °F 75 °F 91 °F (2001)
Min Temperature 49 °F 47 °F 35 °F (1986)
Degree Days  
Heating Degree Days 8 5  
Month to date heating degree days 173 172  
Since 1 July heating degree days 5718 5789  
Cooling Degree Days 0 1  
Month to date cooling degree days 14 12  
Year to date cooling degree days 23 13  
Growing Degree Days 8 (Base 50)    
Moisture  
Dew Point 38 °F    
Average Humidity 51    
Maximum Humidity 72    
Minimum Humidity 30    
Precipitation  
Precipitation 0.00 in 0.02 in 0.16 in (2006)
Month to date precipitation 0.08 0.42  
Year to date precipitation 2.89 3.84  
Sea Level Pressure  
Sea Level Pressure 29.83 in    
Wind  
Wind Speed 13 mph (SW)    
Max Wind Speed 23 mph    
Max Gust Speed 30 mph    
Visibility 10 miles    
Events      
T = Trace of Precipitation, MM = Missing Value Source: NWS Daily Summary

Daily Weather History Graph

Daily Weather History Graph

Search for Another Location

Airport or City:

Trip Planner

Search our weather history database for the weather conditions in past years. The results will help you decide how hot, cold, wet, or windy it might be!

Date:

Astronomy

May. 22, 2012 Rise Set
Actual Time 5:12 AM PDT 8:35 PM PDT
Civil Twilight 4:35 AM PDT 9:13 PM PDT
Nautical Twilight 3:46 AM PDT 10:03 PM PDT
Astronomical Twilight 2:42 AM PDT 11:07 PM PDT
Moon 6:25 AM PDT (5/22) 10:18 PM PDT (5/22)
Length of Visible Light 16h 38m
Length of Day
15h 23m
Waxing Crescent, 3% of the Moon is Illuminated
May 22
Waxing Crescent
May 28
First Quarter
Jun 4
Full
Jun 11
Last Quarter
Jun 19
New

Hourly Weather History & Observations

Time (PDT) Temp. Dew Point Humidity Pressure Visibility Wind Dir Wind Speed Gust Speed Precip Events Conditions
12:52 AM 55.9 °F 46.0 °F 69% 29.79 in 10.0 mi SW 12.7 mph - N/A   Clear
1:52 AM 53.6 °F 44.6 °F 72% 29.80 in 10.0 mi WSW 9.2 mph - N/A   Clear
2:52 AM 54.0 °F 43.0 °F 66% 29.81 in 10.0 mi SSW 8.1 mph - N/A   Clear
3:52 AM 54.0 °F 39.9 °F 59% 29.83 in 10.0 mi SW 11.5 mph - N/A   Clear
4:52 AM 53.6 °F 39.2 °F 58% 29.83 in 10.0 mi SW 10.4 mph - N/A   Partly Cloudy
5:52 AM 53.1 °F 41.0 °F 64% 29.83 in 10.0 mi SW 11.5 mph - N/A   Clear
6:52 AM 53.1 °F 39.9 °F 61% 29.84 in 10.0 mi SW 11.5 mph - N/A   Mostly Cloudy
7:52 AM 54.0 °F 41.0 °F 62% 29.86 in 10.0 mi SW 9.2 mph - N/A   Clear
8:52 AM 57.9 °F 36.0 °F 44% 29.85 in 10.0 mi WSW 10.4 mph - N/A   Clear
9:52 AM 60.1 °F 35.1 °F 39% 29.86 in 10.0 mi WSW 11.5 mph 20.7 mph N/A   Partly Cloudy
10:52 AM 62.1 °F 34.0 °F 35% 29.86 in 10.0 mi SSW 8.1 mph - N/A   Partly Cloudy
11:52 AM 62.1 °F 33.1 °F 34% 29.85 in 10.0 mi SW 10.4 mph - N/A   Mostly Cloudy
12:52 PM 62.1 °F 30.9 °F 31% 29.85 in 10.0 mi WSW 18.4 mph 27.6 mph N/A   Mostly Cloudy
1:52 PM 63.0 °F 32.0 °F 31% 29.85 in 10.0 mi SW 20.7 mph 27.6 mph N/A   Partly Cloudy
2:52 PM 61.0 °F 35.1 °F 38% 29.85 in 10.0 mi SW 19.6 mph 29.9 mph N/A   Scattered Clouds
3:52 PM 63.0 °F 36.0 °F 37% 29.83 in 10.0 mi SSW 9.2 mph - N/A   Partly Cloudy
4:52 PM 63.0 °F 34.0 °F 34% 29.82 in 10.0 mi WSW 16.1 mph - N/A   Partly Cloudy
5:52 PM 62.1 °F 36.0 °F 38% 29.81 in 10.0 mi SSW 12.7 mph 19.6 mph N/A   Partly Cloudy
6:52 PM 61.0 °F 37.9 °F 42% 29.82 in 10.0 mi SW 16.1 mph - N/A   Mostly Cloudy
7:52 PM 59.0 °F 37.9 °F 46% 29.81 in 10.0 mi SW 11.5 mph - N/A   Mostly Cloudy
8:52 PM 57.0 °F 41.0 °F 55% 29.81 in 10.0 mi WSW 17.3 mph 23.0 mph N/A   Overcast
9:52 PM 55.9 °F 39.9 °F 55% 29.82 in 10.0 mi West 12.7 mph - N/A   Overcast
10:52 PM 53.1 °F 39.0 °F 59% 29.83 in 10.0 mi WSW 15.0 mph - N/A   Clear
11:52 PM 51.1 °F 36.0 °F 56% 29.84 in 10.0 mi WSW 12.7 mph - N/A   Clear